Lid_Strength_Index
8 8 9 9 9 9 9 9 9 9 9 9 9 9 9 9 8 8 8 8 6 5 4 1 1 1 1 1 0 -1 -2 -1 -1 -1 -1 -0 1 1 2 2 2 2 2
8 9 9 9 9 9 9 9 9 9 10 9 9 9 9 9 9 9 8 8 7 5 3 1 1 1 -0 -1 0 0 -1 -0 0 0 0 0 0 -0 -0 2 2 3 3
9 9 9 10 10 10 10 10 10 10 10 10 10 10 10 10 9 9 9 8 7 6 4 2 2 2 1 0 0 -0 0 0 1 1 1 1 1 0 0 0 1 1 1
9 9 10 10 10 10 10 10 10 10 10 11 11 10 10 10 10 10 9 8 7 6 6 4 4 3 2 2 1 0 1 1 1 2 1 1 1 1 1 1 1 1 1
9 9 10 10 10 10 11 10 11 11 11 11 11 10 11 11 10 10 10 9 8 6 6 6 6 5 4 3 2 2 2 2 2 2 2 2 2 2 2 2 2 1 1
9 10 10 11 11 11 11 11 11 11 11 11 12 11 11 10 10 10 10 9 8 8 7 8 7 7 5 4 4 3 3 2 3 3 3 3 2 3 2 2 2 2 1
9 10 11 11 11 11 11 11 12 12 12 12 12 11 12 10 10 10 9 9 9 9 9 8 8 7 7 6 4 4 4 3 3 3 3 3 3 3 2 1 1 1 1
10 10 11 11 11 12 12 12 12 12 12 12 12 13 13 12 11 11 10 10 10 9 10 9 9 9 8 7 5 5 4 4 4 5 4 4 3 2 1 1 1 0 0
10 10 11 11 11 12 12 12 12 12 13 13 12 12 14 14 13 11 11 11 11 10 10 10 9 9 8 8 7 8 7 7 6 6 4 4 4 3 2 1 0 0 -0
10 10 11 11 11 12 12 12 13 13 13 13 13 13 13 13 13 13 12 12 12 12 11 10 9 9 9 9 9 9 9 8 8 6 5 5 4 3 3 1 1 0 1
10 11 11 11 12 12 12 13 13 13 13 13 13 14 14 13 13 14 14 13 12 12 12 11 10 9 10 9 9 10 10 9 8 7 6 6 5 4 3 3 1 1 1
11 11 12 12 12 12 12 13 13 13 14 14 13 14 13 13 14 14 15 14 14 12 12 11 10 10 10 9 10 11 10 9 9 8 7 6 6 5 4 3 3 2 2
12 12 12 13 13 13 13 13 14 14 14 14 14 14 14 14 14 14 14 15 15 14 13 12 11 10 10 9 10 10 10 9 9 8 8 7 6 6 5 4 4 3 3
11 12 12 13 13 13 14 14 14 14 14 14 15 15 14 14 14 14 15 15 16 15 15 13 13 12 11 10 10 10 10 10 9 8 8 8 7 6 5 5 5 4 4
12 14 14 14 14 14 15 15 15 16 15 15 16 16 15 15 15 14 14 14 15 17 16 15 14 12 12 11 11 10 11 11 10 9 8 8 8 7 6 6 6 5 5
14 14 14 15 15 15 15 16 16 16 16 16 16 16 16 15 15 14 14 14 14 16 17 15 13 12 12 12 12 12 12 12 11 10 9 9 8 8 7 7 7 6 6
14 14 15 15 16 16 16 16 17 17 16 17 16 16 16 15 15 15 15 15 15 15 17 15 15 13 13 13 12 12 12 12 11 11 10 9 8 8 7 7 7 7 7
14 15 15 16 17 17 17 17 18 17 17 17 16 16 16 16 16 15 16 16 16 15 16 17 14 13 14 13 14 14 13 13 12 12 10 9 9 8 7 8 7 7 7
15 16 16 16 17 17 18 17 17 17 17 17 17 17 17 17 17 16 16 16 16 16 16 16 15 13 13 12 13 14 14 13 13 12 10 9 9 9 8 8 8 7 7
16 16 16 16 16 17 17 17 17 17 17 17 17 17 17 17 17 16 16 16 16 16 16 16 15 14 14 13 14 15 15 14 13 12 12 11 11 10 8 8 9 9 9
16 16 16 16 16 16 16 17 17 17 17 17 17 16 16 16 16 15 16 16 16 17 17 16 16 15 15 15 15 16 16 15 14 14 13 12 11 11 10 9 10 10 10
16 16 16 16 16 16 15 15 16 17 17 17 17 17 16 16 15 15 14 14 15 16 17 17 15 15 15 16 15 16 16 16 15 15 14 13 13 12 11 11 11 10 10
17 17 17 17 17 16 14 14 14 16 16 17 17 17 17 16 16 16 15 14 14 14 14 15 15 15 16 15 16 17 17 17 15 14 14 14 14 13 12 12 11 10 10
17 17 17 17 17 17 14 14 14 15 16 16 16 16 16 16 15 16 16 16 15 15 13 13 13 14 14 14 15 15 16 16 16 15 16 15 14 13 13 12 12 10 9
17 18 17 18 17 17 15 14 14 15 15 15 15 15 15 15 14 14 15 16 16 15 14 13 12 13 12 13 13 15 16 16 16 15 16 15 15 14 14 13 14 13 10
17 17 17 17 17 17 15 14 14 15 15 15 14 14 14 14 13 13 14 15 16 16 16 16 15 13 12 13 11 13 13 15 15 15 15 15 16 16 14 15 15 14 13